{"data":{"norad_id":68839,"intl_designator":"2026-094A","name":"STARLINK-37475","alt_names":[],"object_type":"PAYLOAD","status":"ACTIVE","operator":null,"country":"US","launch_date":"2026-04-26","launch_site_code":"AFWTR","launch_vehicle":null,"mission":null,"orbit_class":"UNKNOWN","rcs_meters":null,"size_class":null,"mass_kg":null,"dimensions":null,"purposes":["comms"],"wikipedia_slug":null,"has_3d_model":false,"image_url":null,"decayed_at":null,"tle_current":{"epoch":"2026-05-24T22:20:11.630688Z","epoch_age_seconds":78098,"freshness":"FRESH","line1":"1 68839U 26094A   26144.93069017  .00073477  00000+0  12966-2 0  9990","line2":"2 68839  97.2842 159.5427 0002750 321.2841  38.8213 15.50128381  4470","mean_motion":15.50128381,"eccentricity":0.000275,"inclination_deg":97.2842,"raan_deg":159.5427,"arg_perigee_deg":321.2841,"mean_anomaly_deg":38.8213,"bstar":0.0012966,"rev_number":447,"period_min":92.895531599199,"perigee_km":414.48241467489,"apogee_km":418.21938301925,"semimajor_km":6794.4878988471,"source":"CELESTRAK","updated_at":"2026-05-25T13:38:22.045320Z"}}}